When you browse on this site, cookies collect data to enhance your experience and personalize the content and advertising you see.
Visit our Privacy Policy to learn more. By continuing to use the site, you agree to this use of cookies and data.
  • In Belgien
  • Länderverzeichnis
  • Für 7 Tage
  • Wassertemperatur
  • Wetterkarte
  • Widgets
  • user-avatar
    Anmelden

    Stündliche Wetter Pinsk

    Heute, 31 Mai, Sonntag

    Zeit Temperatur Niederschläge Wind Luftdruck Luftfeuchtigkeit
    00:00 +14°C° 0.1 mm 7 m/S 737 mmHg 95%
    01:00 +12°C° 0.1 mm 7 m/S 738 mmHg 94%
    02:00 +12°C° 0.1 mm 7 m/S 738 mmHg 93%
    03:00 +11°C° 0 mm 6 m/S 738 mmHg 94%
    04:00 +11°C° 0 mm 6 m/S 739 mmHg 94%
    05:00 +10°C° 0 mm 5 m/S 739 mmHg 94%
    06:00 +12°C° 0 mm 5 m/S 740 mmHg 92%
    07:00 +13°C° 0 mm 5 m/S 740 mmHg 90%
    08:00 +13°C° 0 mm 5 m/S 741 mmHg 87%
    09:00 +14°C° 0.2 mm 5 m/S 741 mmHg 86%
    10:00 +15°C° 0.2 mm 5 m/S 742 mmHg 84%
    11:00 +16°C° 0.2 mm 6 m/S 742 mmHg 82%
    12:00 +16°C° 0.7 mm 6 m/S 743 mmHg 83%
    13:00 +15°C° 0.7 mm 7 m/S 743 mmHg 84%
    14:00 +15°C° 0.7 mm 7 m/S 743 mmHg 86%
    15:00 +15°C° 0.3 mm 7 m/S 744 mmHg 86%
    16:00 +15°C° 0.3 mm 8 m/S 744 mmHg 86%
    17:00 +13°C° 0.3 mm 8 m/S 744 mmHg 86%
    18:00 +13°C° 0 mm 8 m/S 745 mmHg 84%
    19:00 +14°C° 0 mm 7 m/S 745 mmHg 83%
    20:00 +12°C° 0 mm 7 m/S 746 mmHg 81%
    21:00 +12°C° 0 mm 7 m/S 746 mmHg 80%
    22:00 +11°C° 0 mm 6 m/S 747 mmHg 79%
    23:00 +10°C° 0 mm 5 m/S 747 mmHg 78%

    Morgen, 1 Juni, Montag

    Zeit Temperatur Niederschläge Wind Luftdruck Luftfeuchtigkeit
    00:00 +9°C° 0 mm 5 m/S 747 mmHg 83%
    01:00 +9°C° 0 mm 5 m/S 748 mmHg 87%
    02:00 +8°C° 0 mm 4 m/S 748 mmHg 92%
    03:00 +7°C° 0 mm 5 m/S 748 mmHg 89%
    04:00 +7°C° 0 mm 5 m/S 748 mmHg 87%
    05:00 +7°C° 0 mm 5 m/S 748 mmHg 85%
    06:00 +8°C° 0 mm 5 m/S 749 mmHg 80%
    07:00 +9°C° 0 mm 5 m/S 749 mmHg 75%
    08:00 +10°C° 0 mm 6 m/S 750 mmHg 70%
    09:00 +11°C° 0 mm 6 m/S 750 mmHg 67%
    10:00 +11°C° 0 mm 6 m/S 750 mmHg 63%
    11:00 +12°C° 0 mm 7 m/S 750 mmHg 60%
    12:00 +12°C° 0 mm 7 m/S 750 mmHg 59%
    13:00 +13°C° 0 mm 6 m/S 750 mmHg 59%
    14:00 +13°C° 0 mm 6 m/S 749 mmHg 59%
    15:00 +13°C° 0.1 mm 6 m/S 749 mmHg 60%
    16:00 +13°C° 0.1 mm 6 m/S 749 mmHg 61%
    17:00 +13°C° 0.1 mm 6 m/S 749 mmHg 62%
    18:00 +12°C° 0 mm 5 m/S 749 mmHg 68%
    19:00 +11°C° 0 mm 4 m/S 749 mmHg 73%
    20:00 +8°C° 0 mm 4 m/S 749 mmHg 79%
    21:00 +7°C° 0 mm 4 m/S 749 mmHg 81%
    22:00 +7°C° 0 mm 3 m/S 749 mmHg 84%
    23:00 +7°C° 0 mm 3 m/S 749 mmHg 87%

    übermorgen, 2 Juni, Dienstag

    Zeit Temperatur Niederschläge Wind Luftdruck Luftfeuchtigkeit
    00:00 +5°C° 0 mm 3 m/S 748 mmHg 87%
    01:00 +5°C° 0 mm 3 m/S 748 mmHg 87%
    02:00 +5°C° 0 mm 3 m/S 748 mmHg 86%
    03:00 +5°C° 0 mm 4 m/S 747 mmHg 87%
    04:00 +5°C° 0 mm 4 m/S 747 mmHg 87%
    05:00 +5°C° 0 mm 4 m/S 747 mmHg 87%
    06:00 +6°C° 0 mm 5 m/S 747 mmHg 82%
    07:00 +8°C° 0 mm 6 m/S 746 mmHg 78%
    08:00 +9°C° 0 mm 6 m/S 746 mmHg 73%
    09:00 +10°C° 0.3 mm 7 m/S 746 mmHg 74%
    10:00 +10°C° 0.3 mm 7 m/S 745 mmHg 76%
    11:00 +11°C° 0.3 mm 7 m/S 745 mmHg 77%
    12:00 +11°C° 0.4 mm 7 m/S 744 mmHg 80%
    13:00 +10°C° 0.4 mm 6 m/S 744 mmHg 82%
    14:00 +10°C° 0.4 mm 6 m/S 743 mmHg 84%
    15:00 +10°C° 0.3 mm 5 m/S 743 mmHg 86%
    16:00 +9°C° 0.3 mm 5 m/S 743 mmHg 88%
    17:00 +10°C° 0.3 mm 4 m/S 742 mmHg 90%
    18:00 +8°C° 0.4 mm 5 m/S 742 mmHg 91%
    19:00 +8°C° 0.4 mm 5 m/S 741 mmHg 92%
    20:00 +7°C° 0.4 mm 6 m/S 741 mmHg 93%
    21:00 +8°C° 0.2 mm 6 m/S 740 mmHg 94%
    22:00 +8°C° 0.2 mm 6 m/S 740 mmHg 95%
    23:00 +8°C° 0.2 mm 6 m/S 740 mmHg 95%

    3 Juni, Mittwoch

    Zeit Temperatur Niederschläge Wind Luftdruck Luftfeuchtigkeit
    00:00 +8°C° 0.2 mm 5 m/S 739 mmHg 96%
    01:00 +8°C° 0.2 mm 5 m/S 739 mmHg 96%
    02:00 +10°C° 0.2 mm 4 m/S 739 mmHg 96%
    03:00 +8°C° 0.1 mm 4 m/S 739 mmHg 96%
    04:00 +8°C° 0.1 mm 4 m/S 738 mmHg 97%
    05:00 +9°C° 0.1 mm 3 m/S 738 mmHg 97%
    06:00 +10°C° 0.2 mm 3 m/S 738 mmHg 94%
    07:00 +10°C° 0.2 mm 4 m/S 738 mmHg 92%
    08:00 +11°C° 0.2 mm 4 m/S 738 mmHg 89%
    09:00 +11°C° 0.4 mm 4 m/S 739 mmHg 86%
    10:00 +12°C° 0.4 mm 4 m/S 739 mmHg 83%
    11:00 +13°C° 0.4 mm 4 m/S 739 mmHg 80%
    12:00 +13°C° 0.4 mm 4 m/S 739 mmHg 78%
    13:00 +13°C° 0.4 mm 4 m/S 739 mmHg 77%
    14:00 +14°C° 0.4 mm 4 m/S 739 mmHg 75%
    15:00 +14°C° 0.2 mm 4 m/S 739 mmHg 74%
    16:00 +14°C° 0.2 mm 3 m/S 739 mmHg 73%
    17:00 +14°C° 0.2 mm 3 m/S 739 mmHg 72%
    18:00 +13°C° 0.4 mm 3 m/S 739 mmHg 78%
    19:00 +12°C° 0.4 mm 3 m/S 739 mmHg 84%
    20:00 +11°C° 0.4 mm 3 m/S 739 mmHg 90%
    21:00 +10°C° 0 mm 3 m/S 739 mmHg 91%
    22:00 +9°C° 0 mm 2 m/S 739 mmHg 93%
    23:00 +8°C° 0 mm 2 m/S 740 mmHg 95%

    4 Juni, Donnerstag

    Zeit Temperatur Niederschläge Wind Luftdruck Luftfeuchtigkeit
    00:00 +8°C° 0 mm 2 m/S 740 mmHg 95%
    01:00 +7°C° 0 mm 2 m/S 740 mmHg 96%
    02:00 +7°C° 0 mm 2 m/S 740 mmHg 96%
    03:00 +7°C° 0 mm 2 m/S 740 mmHg 97%
    04:00 +7°C° 0 mm 2 m/S 740 mmHg 97%
    05:00 +7°C° 0 mm 3 m/S 740 mmHg 97%
    06:00 +8°C° 0 mm 3 m/S 741 mmHg 95%
    07:00 +10°C° 0 mm 3 m/S 741 mmHg 93%
    08:00 +11°C° 0 mm 3 m/S 741 mmHg 91%
    09:00 +12°C° 0.5 mm 3 m/S 741 mmHg 90%
    10:00 +12°C° 0.5 mm 3 m/S 742 mmHg 89%
    11:00 +12°C° 0.5 mm 3 m/S 742 mmHg 88%
    12:00 +13°C° 0.9 mm 4 m/S 742 mmHg 86%
    13:00 +13°C° 0.9 mm 4 m/S 742 mmHg 84%
    14:00 +14°C° 0.9 mm 4 m/S 742 mmHg 82%
    15:00 +14°C° 0.8 mm 4 m/S 742 mmHg 82%
    16:00 +16°C° 0.8 mm 3 m/S 742 mmHg 81%
    17:00 +16°C° 0.8 mm 3 m/S 742 mmHg 80%
    18:00 +14°C° 0.6 mm 3 m/S 742 mmHg 83%
    19:00 +14°C° 0.6 mm 2 m/S 741 mmHg 86%
    20:00 +13°C° 0.6 mm 2 m/S 741 mmHg 90%
    21:00 +12°C° 0 mm 2 m/S 742 mmHg 91%
    22:00 +11°C° 0 mm 1 m/S 742 mmHg 91%
    23:00 +10°C° 0 mm 1 m/S 742 mmHg 92%

    5 Juni, Freitag

    Zeit Temperatur Niederschläge Wind Luftdruck Luftfeuchtigkeit
    00:00 +10°C° 0 mm 1 m/S 742 mmHg 94%
    01:00 +9°C° 0 mm 2 m/S 742 mmHg 95%
    02:00 +8°C° 0 mm 2 m/S 742 mmHg 96%
    03:00 +8°C° 0 mm 2 m/S 742 mmHg 96%
    04:00 +9°C° 0 mm 2 m/S 742 mmHg 96%
    05:00 +9°C° 0 mm 2 m/S 742 mmHg 97%
    06:00 +10°C° 0 mm 2 m/S 742 mmHg 94%
    07:00 +12°C° 0 mm 3 m/S 742 mmHg 90%
    08:00 +14°C° 0 mm 3 m/S 742 mmHg 87%
    09:00 +16°C° 0 mm 3 m/S 742 mmHg 81%
    10:00 +17°C° 0 mm 3 m/S 742 mmHg 75%
    11:00 +19°C° 0 mm 3 m/S 742 mmHg 69%
    12:00 +19°C° 0.2 mm 3 m/S 741 mmHg 68%
    13:00 +20°C° 0.2 mm 3 m/S 741 mmHg 66%
    14:00 +20°C° 0.2 mm 3 m/S 741 mmHg 65%
    15:00 +20°C° 0.1 mm 3 m/S 741 mmHg 64%
    16:00 +20°C° 0.1 mm 3 m/S 741 mmHg 64%
    17:00 +21°C° 0.1 mm 3 m/S 741 mmHg 64%
    18:00 +19°C° 0 mm 2 m/S 741 mmHg 69%
    19:00 +17°C° 0 mm 2 m/S 741 mmHg 74%
    20:00 +16°C° 0 mm 1 m/S 741 mmHg 79%
    21:00 +15°C° 0 mm 1 m/S 742 mmHg 81%
    22:00 +14°C° 0 mm 1 m/S 742 mmHg 83%
    23:00 +13°C° 0 mm 1 m/S 742 mmHg 85%
    Mehr zeigen